Regional Weather Roundup
Issued by NWS Cleveland, OH

Home | Current Version | Previous Version | Text Only | Print | Product List | Glossary Off
Versions: 1 2 3 4 5 6 7 8 9 10 11 12 13 14 15 16 17 18 19 20 21 22 23 24 25 26 27 28 29 30 31 32 33 34 35 36 37 38 39 40 41 42 43 44 45 46 47 48 49 50

000
ASUS41 KCLE 300600
RWRCLE
OHIO REGIONAL WEATHER ROUNDUP
NATIONAL WEATHER SERVICE WILMINGTON, OH
200 AM EDT THU JUL 30 2015

NOTE: "FAIR" INDICATES FEW OR NO CLOUDS BELOW 12,000 FEET WITH NO
SIGNIFICANT WEATHER AND/OR OBSTRUCTIONS TO VISIBILITY.

OHZ001>008-015>018-024>027-034-035-043-044-300700-
   NORTHWEST OHIO

CITY           SKY/WX    TMP DP  RH WIND       PRES   REMARKS
DEFIANCE       PTCLDY    66  59  78 CALM      29.98F
FINDLAY        PTCLDY    68  60  75 CALM      29.97F
TOLEDO EXPRESS CLEAR     66  61  84 W6        29.96F
TOLEDO EXEC    CLEAR     68  61  78 SW6       29.97S
LIMA           MOCLDY    67  60  78 NW6       29.99F
$$

OHZ009>014-019>023-028>033-038-089-300700-
   NORTHEAST OHIO

CITY           SKY/WX    TMP DP  RH WIND       PRES   REMARKS
CLE-HOPKINS    MOCLDY    74  66  76 NW10      29.97R
CLE-LAKEFRONT  MOCLDY    79  62  56 NW15      29.92R
CUY CO. ARPT   NOT AVBL
LORAIN-ELYRIA  PTCLDY    71  63  75 NW6       29.96S
ASHTABULA      CLOUDY    77  73  87 W13G20    29.92S
AKRON-CANTON   CLOUDY    76  72  87 NW10      29.95F
WOOSTER        NOT AVBL
MANSFIELD      MOCLDY    73  65  75 NW9       29.99R
YOUNGSTOWN     CLOUDY    77  71  82 W10       29.94S THUNDER
$$

OHZ042-051>053-060>062-070>072-077>081-300700-
  SOUTHWEST OHIO

CITY           SKY/WX    TMP DP  RH WIND       PRES   REMARKS
CINC-COVINGTON MOCLDY    75  70  84 NW10      30.01R
CINC-LUNKEN    MOCLDY    75  73  93 W5        29.99S
HAMILTON       CLOUDY    77  71  82 W7        30.00S
DAYTON         NOT AVBL
WRIGHT-PAT AFB NOT AVBL
DAYTON GENERAL CLOUDY    78  69  73 NW13      29.99S
WILMINGTON     MOCLDY    75  72  90 W8        29.99S FOG
$$

OHZ036-037-039>041-045>050-054>059-063>069-073>076-082>088-300700-
  CENTRAL AND SOUTHEAST OHIO

CITY           SKY/WX    TMP DP  RH WIND       PRES   REMARKS
COLUMBUS       MOCLDY    76  73  91 NW6       29.96S
OSU AIRPORT    MOCLDY    75  71  87 NW12      29.97S
BOLTON FIELD   NOT AVBL
RICKENBACK AFB NOT AVBL
NEWARK         MOCLDY    72  71  97 CALM      29.95F FOG
MARION         MOCLDY    72  66  81 NW8       29.99S
LANCASTER      MOCLDY    75  72  90 CALM      29.97F
ZANESVILLE     MOCLDY    74  69  85 W3        29.96S
NEW PHILLY     CLOUDY    76  72  87 CALM      29.96R
$$



USA.gov is the U.S. government's official web portal to all federal, state and local government web resources and services.